Location: Barcelona
(41.3830°N, 2.1830°E)
Time: 11:58:56
(UTC+01:00)

ISS - Pass Details

Date: 16 March 2019
Orbit: 408 x 411 km, 51.6° (Epoch: 24 March)

Event Time Altitude Azimuth Distance (km) Brightness Sun altitude
Exits shadow 04:48:03 27° 92° (E) 823 -1.7 -25.5°
Drops below altitude 10° 04:49:48 10° 107° (ESE) 1,467 -0.4 -25.2°
Sets 04:51:55 0° 113° (ESE) 2,326 0.7 -24.8°
